OpenBCM V2.0.2 (Linux)

Packet Radio Mailbox

IZ3LSV

[San Dona' di P. JN]

 Login: GUEST





  
LU1HVK > KEP      10.01.20 18:03l 244 Lines 12026 Bytes #999 (0) @ WW
BID : 38729_LU1HVK
Read: GUEST
Subj: TLE 03 11
Path: IZ3LSV<ED1ZAC<LU4ECL<JE7YGF<N9PMO<WH6FQE<KC9VYU<N7HPX<LU1HVK
Sent: 200110/1558Z 38729@LU1HVK.2594.CBA.ARG.SA LinBPQ6.0.19

                         _    _   _ _ _   ___     ___  __
                        | |  | | | / | | | \ \   / / |/ /
                        | |  | | | | | |_| |\ \ / /| ' /
                        | |__| |_| | |  _  | \ V / | . \
                        |_____\___/|_|_| |_|  \_/  |_|\_\

     BBS/NODO - CORDOBA (LEONES-FF87UH) - LU1HVK-4 NODO - LU1HVK-3 APRS

+----------------------------------------------------------------------------+
OSCAR 7
1  7530U 74089B   19306.88343323 -.00000042 +00000-0 +16383-4 0  9998
2  7530 101.7651 273.2276 0012501 081.9383 332.8981 12.53640562057479
OSCAR 11 (UoSAT 2)
1 14781U 84021B   19306.86204293  .00000062  00000-0  13685-4 0  9994
2 14781  97.6032 325.0345 0007443 221.6653 138.3995 14.83117029919097
OSCAR 19 (LUSAT)
1 20442U 90005G   19306.87901229 +.00000028 +00000-0 +26509-4 0  9999
2 20442 098.6622 248.7248 0012845 103.6826 256.5789 14.32936701555966
EYESAT A
1 22825U 93061C   19306.91402157 -.00000002 +00000-0 +17207-4 0  9990
2 22825 098.9147 298.7564 0007805 325.7069 034.3607 14.30070076361294
ITAMSAT
1 22826U 93061D   19305.55464947 -.00000016  00000-0  11625-4 0  9998
2 22826  98.9086 297.3389 0008224 317.3325  42.7217 14.30404107361572
RADIO ROSTO
1 23439U 94085A   19306.89755700 -.00000014 +00000-0 +81685-3 0  9994
2 23439 064.8160 254.2410 0145310 086.3996 275.3533 11.27568575023360
JAS 2
1 24278U 96046B   19306.93760528 -.00000009 +00000-0 +29739-4 0  9991
2 24278 098.5586 081.8644 0349474 244.1480 112.3236 13.53094392146111
TECHSAT 1B
1 25397U 98043D   19306.87785522 -.00000003 +00000-0 +18000-4 0  9990
2 25397 098.7010 245.4251 0001737 038.9223 321.2080 14.23673425107170
ISS (ZARYA)
1 25544U 98067A   19307.15489100  .00002260  00000-0  47187-4 0  9999
2 25544  51.6442  32.2301 0005913 223.1851 331.5947 15.50249275196812
PCSAT
1 26931U 01043C   19306.81177412 -.00000008 +00000-0 +28780-4 0  9997
2 26931 067.0530 009.8417 0007477 266.6568 093.3678 14.30557250944518
SAUDISAT 1C
1 27607U 02058C   19306.51822492 +.00000014 +00000-0 +22784-4 0  9991
2 27607 064.5560 351.2639 0073652 229.8476 129.6161 14.75585241907093
CUTE-1
1 27844U 03031E   19306.91318355 +.00000049 +00000-0 +41771-4 0  9993
2 27844 098.6850 313.0802 0009797 000.5171 359.6015 14.22202931847752
CUBESAT XI 4
1 27848U 03031J   19306.94450470 +.00000037 +00000-0 +36600-4 0  9997
2 27848 098.6923 313.6383 0009905 012.3274 347.8144 14.21794896847615
MOZHAYETS 4
1 27939U 03042A   19306.89051329 +.00000127 +00000-0 +31403-4 0  9990
2 27939 098.0609 080.1936 0012765 359.7178 000.4014 14.66814031860650
CUBESAT XI 5
1 28895U 05043F   19306.91523330 +.00000162 +00000-0 +40015-4 0  9992
2 28895 097.9792 085.1068 0015478 279.0599 080.8852 14.63706294747327
CUTE-1.7+APD II
1 32785U 08021C   19306.83622029 +.00000208 +00000-0 +28017-4 0  9999
2 32785 097.5575 300.1372 0013454 161.8338 198.3363 14.88367035624019
DELFI C3
1 32789U 08021G   19306.85789542 +.00001163 +00000-0 +81121-4 0  9995
2 32789 097.4495 352.2900 0012517 023.6175 336.5625 15.07225339627529
SEEDS
1 32791U 08021J   19306.55593336 +.00000438 +00000-0 +49646-4 0  9999
2 32791 097.5321 305.9612 0014293 137.2615 222.9718 14.90900445624426
YUBELEINY
1 32953U 08025A   19306.86955341 +.00000020 +00000-0 +75656-4 0  9992
2 32953 082.5043 059.4435 0019574 187.6845 172.3938 12.43092043519355
PRISM (HITOMI)
1 33493U 09002B   19306.84719181 +.00000088 +00000-0 +13260-4 0  9993
2 33493 098.1244 233.0136 0016298 088.0601 272.2486 14.96786530585658
KKS-1 (KISEKI)
1 33499U 09002H   19306.86701709 +.00000105 +00000-0 +23404-4 0  9999
2 33499 098.3384 149.8908 0010116 125.2868 234.9288 14.75475170579025
SWISSCUBE
1 35932U 09051B   19306.94257652 +.00000153 +00000-0 +45638-4 0  9995
2 35932 098.5995 117.0485 0008688 103.3351 256.8815 14.56324899536719
BEESAT
1 35933U 09051C   19306.93736687 +.00000111 +00000-0 +36140-4 0  9997
2 35933 098.6011 118.8570 0006822 114.0059 246.1853 14.56408821536785
ITUPSAT 1
1 35935U 09051E   19306.93692335 +.00000082 +00000-0 +30112-4 0  9990
2 35935 098.6120 119.0833 0009149 113.0184 247.1978 14.55563285536577
XIWANG-1 (HOPE-1)
1 36122U 09072B   19306.77208506 -.00000052 +00000-0 -24512-4 0  9993
2 36122 100.0794 302.7385 0007770 033.3960 326.7622 13.16351781474919
TISAT 1
1 36799U 10035E   19306.43953265  .00000405  00000-0  46934-4 0  9998
2 36799  98.1726 103.2851 0012234   3.8952 356.2358 14.91191918505149
JUGNU
1 37839U 11058B   19306.91073692 +.00000334 +00000-0 +36090-4 0  9993
2 37839 019.9605 222.6589 0018921 040.4228 028.8230 14.12663451416576
SRMSAT
1 37841U 11058D   19306.32207598 +.00000307 +00000-0 +23210-4 0  9995
2 37841 019.9722 285.8324 0011626 257.3599 243.0734 14.10642087415919
M-CUBED/EXP-1 PRIME
1 37855U 11061F   19306.83415437 +.00002285 +00000-0 +12060-3 0  9990
2 37855 101.7203 272.8604 0172903 030.2152 330.8895 15.05723245436944
HORYU 2
1 38340U 12025D   19306.87703630 +.00000197 +00000-0 +36686-4 0  9991
2 38340 098.3144 349.4809 0012392 051.6516 308.5804 14.75768559390981
STRAND 1
1 39090U 13009E   19306.51082029 +.00000040 +00000-0 +29224-4 0  9997
2 39090 098.4740 150.0942 0008134 239.5472 120.4910 14.35103330349998
SOMP
1 39134U 13015E   19306.84415211 +.00001719 +00000-0 +86450-4 0  9990
2 39134 064.8623 296.0005 0037287 281.3878 078.3062 15.20458124361061
BEESAT 3
1 39135U 13015F   19306.41851270 +.00001090 +00000-0 +62863-4 0  9997
2 39135 064.8671 317.6224 0038721 287.0364 072.6522 15.17698077360601
BEESAT 2
1 39136U 13015G   19306.50770850 +.00001048 +00000-0 +62151-4 0  9995
2 39136 064.8682 321.5555 0029789 291.8611 067.9347 15.17113359360536
CUBEBUG 1
1 39153U 13018D   19306.81914159 +.00000233 +00000-0 +37253-4 0  9993
2 39153 097.9815 044.1976 0018244 112.8581 247.4560 14.80617561352027
ZACUBE
1 39417U 13066B   19306.91336728 +.00000228 +00000-0 +35057-4 0  9994
2 39417 097.5623 312.7019 0057669 304.9440 054.6364 14.81171628321359
TRITON 1
1 39427U 13066M   19306.88091098 +.00000228 +00000-0 +43895-4 0  9998
2 39427 097.6944 275.9079 0115218 086.2869 275.1503 14.67898882318277
GOMX 1
1 39430U 13066Q   19306.89646044 +.00000175 +00000-0 +40554-4 0  9990
2 39430 097.7626 254.5207 0150864 181.1827 178.9044 14.59302926316616
HUMSAT D
1 39433U 13066T   19306.67473288  .00000609  00000-0  64502-4 0  9998
2 39433  97.5382 348.4744 0030280 200.9441 159.0541 14.92288736323503
CUBEBUG 2
1 39440U 13066AA  19306.90586672 +.00000264 +00000-0 +43683-4 0  9998
2 39440 097.6115 297.3041 0080240 000.3104 359.8142 14.75909205319017
FUNCUBE 1
1 39444U 13066AE  19306.90524090 +.00000265 +00000-0 +38957-4 0  9997
2 39444 097.5591 314.7671 0056694 298.0925 061.4565 14.82001993319665
UWE-3
1 39446U 13066AG  19306.81028797  .00000241  00000-0  38608-4 0  9999
2 39446  97.5863 304.3651 0069357 333.7574  26.0130 14.78443965319523
SPROUT
1 39770U 14029E   19306.80031630  .00000982  00000-0  11446-3 0  9990
2 39770  97.8897  49.2539 0009054   3.5377 356.5926 14.87486922295217
UNISAT 6
1 40012U 14033C   19306.86909814 +.00000191 +00000-0 +35725-4 0  9999
2 40012 097.7365 167.4313 0058839 016.5327 343.7783 14.74026662288896
DUCHIFAT 1
1 40021U 14033M   19306.74804340  .00000588  00000-0  65677-4 0  9993
2 40021  97.9269 231.8066 0012171 324.0820  35.9579 14.90724047291961
QB50P1
1 40025U 14033R   19306.72442217 +.00000358 +00000-0 +44048-4 0  9990
2 40025 097.9055 226.1745 0011874 335.1931 024.8713 14.89011729291202
CHUBUSAT 1
1 40300U 14070C   19306.80093050  .00000768  00000-0  36306-4 0  9996
2 40300  97.3157  17.4376 0018855 296.5352 204.6430 15.22231817276879
NUDT-PHONESAT
1 40900U 15049B   19306.76467146  .00002541  00000-0  11011-3 0  9991
2 40900  97.4364 314.7851 0014240  67.1684  17.8973 15.23222455228525
ZDPS 2A
1 40901U 15049C   19306.93043583 +.00001123 +00000-0 +58565-4 0  9997
2 40901 097.4615 310.7977 0015156 085.9034 333.9444 15.17908404228055
ZDPS 2B
1 40902U 15049D   19306.90933782 +.00001311 +00000-0 +68051-4 0  9994
2 40902 097.4573 308.1616 0015010 083.4215 005.0764 15.17785702228026
XW-2A
1 40903U 15049E   19306.83390962  .00002434  00000-0  58442-4 0  9994
2 40903  97.3216 350.2827 0013915  16.0091  94.0852 15.42272046231387
KAITUO 1A
1 40904U 15049F   19306.93839350 +.00000833 +00000-0 +47357-4 0  9999
2 40904 097.4711 306.6373 0016343 092.0265 325.1808 15.15485723227781
OBJECT G
1 40905U 15049G   19306.91891374 +.00000687 +00000-0 +40918-4 0  9995
2 40905 097.4761 304.0283 0017330 087.9477 330.9167 15.14381281227644
XW-2C
1 40906U 15049H   19306.91619535 +.00000716 +00000-0 +40875-4 0  9998
2 40906 097.4718 306.7619 0016416 084.0770 003.2100 15.15806945227789
XW-2D
1 40907U 15049J   19306.93708935 +.00000884 +00000-0 +49368-4 0  9996
2 40907 097.4700 306.4668 0015850 081.4977 336.7473 15.16007165227801
LILACSAT 2
1 40908U 15049K   19306.82163373  .00000383  00000-0  24713-4 0  9997
2 40908  97.4838 305.0200 0017510  88.5373  33.4308 15.13880529227554
XW-2F
1 40910U 15049M   19306.95981249 +.00001068 +00000-0 +56483-4 0  9994
2 40910 097.4653 308.7007 0016282 073.9389 316.6224 15.17506990227832
XW-2B
1 40911U 15049N   19306.91560534 +.00000775 +00000-0 +43782-4 0  9993
2 40911 097.4718 307.1166 0015648 082.0400 006.0178 15.15935441227691
KAITUO 1B
1 40912U 15049P   19306.79854227  .00001432  00000-0  69806-4 0  9991
2 40912  97.4502 312.3989 0016295  57.3243  67.7422 15.19846759228136
TIANWANG 1C (TW-1C)
1 40926U 15051B   19306.81107536  .00017651  00000-0  23164-3 0  9992
2 40926  97.1184 352.9133 0006364 209.8743 263.0287 15.58571901231490
TIANWANG 1B (TW-1B)
1 40927U 15051C   19306.78682295  .00016044  00000-0  22518-3 0  9996
2 40927  97.1215 351.9774 0006091 224.0810 247.7595 15.56788521231326
